This is the latest recevied weather packets stored in our database for station/object APPOWX. If no packets are shown the sender has not sent any weather packets the latest 10 day(s).
| Time | Temp. | Humidity | Pressure | Rain* | Wind** | Luminosity | Snow |
|---|---|---|---|---|---|---|---|
| 1777590377 | 17.22° C | 42% | 1013.1 hPa | 0 mm | - | - | - |
| 1777590317 | 17.22° C | 44% | 1013.2 hPa | 0 mm | - | - | - |
| 1777590257 | 17.22° C | 45% | 1013 hPa | 0 mm | - | - | - |
| 1777590196 | 17.22° C | 46% | 1013.1 hPa | 0 mm | - | - | - |
| 1777590136 | 17.78° C | 45% | 1013 hPa | 0 mm | - | - | - |
| 1777590076 | 17.78° C | 45% | 1012.9 hPa | 0 mm | - | - | - |
| 1777590015 | 17.78° C | 43% | 1013.2 hPa | 0 mm | - | - | - |
| 1777589955 | 17.78° C | 43% | 1013 hPa | 0 mm | - | - | - |
| 1777589896 | 17.78° C | 45% | 1012.9 hPa | 0 mm | - | - | - |
| 1777589836 | 17.78° C | 44% | 1013 hPa | 0 mm | - | - | - |
| 1777589775 | 17.78° C | 42% | 1013.2 hPa | 0 mm | - | - | - |
| 1777589715 | 17.78° C | 39% | 1013.1 hPa | 0 mm | - | - | - |
| 1777589655 | 17.78° C | 43% | 1012.9 hPa | 0 mm | - | - | - |
| 1777589595 | 17.78° C | 44% | 1012.9 hPa | 0 mm | - | - | - |
| 1777589536 | 17.78° C | 43% | 1012.9 hPa | 0 mm | - | - | - |
| 1777589474 | 17.78° C | 44% | 1013 hPa | 0 mm | - | - | - |
| 1777589415 | 17.78° C | 43% | 1013 hPa | 0 mm | - | - | - |
| 1777589354 | 17.78° C | 43% | 1012.9 hPa | 0 mm | - | - | - |
| 1777589295 | 17.78° C | 42% | 1012.8 hPa | 0 mm | - | - | - |
| 1777589234 | 17.78° C | 41% | 1013 hPa | 0 mm | - | - | - |
| 1777589174 | 17.78° C | 38% | 1013 hPa | 0 mm | - | - | - |
| 1777589114 | 17.78° C | 42% | 1013 hPa | 0 mm | - | - | - |
| 1777589053 | 17.78° C | 44% | 1012.9 hPa | 0 mm | - | - | - |
| 1777588993 | 17.78° C | 44% | 1012.9 hPa | 0 mm | - | - | - |
| 1777588932 | 17.78° C | 43% | 1013.1 hPa | 0 mm | - | - | - |
* Rain latest hour (hover to see other rain measurements)
** Current wind speed in m/s (hover to see current wind gust speed)